Temp
-11 -11 -12 -13 -13 -13 -13 -13 -13 -13 -12 -12 -11 -11 -11 -12 -12 -12 -13 -13 -13 -13 -13 -13 -13 -13 -13 -13 -13 -13 -13 -13 -13 -13 -13 -13 -13 -15 -14 -14 -14 -14 -15
-11 -12 -12 -13 -13 -13 -13 -13 -13 -13 -12 -12 -11 -11 -12 -12 -12 -12 -13 -13 -13 -13 -13 -13 -13 -13 -13 -13 -13 -13 -13 -13 -13 -14 -13 -13 -14 -14 -14 -14 -14 -14 -14
-12 -12 -13 -13 -13 -13 -13 -13 -13 -13 -13 -12 -13 -11 -12 -13 -12 -13 -13 -13 -13 -13 -14 -14 -14 -13 -13 -13 -14 -13 -13 -13 -14 -14 -13 -14 -13 -13 -13 -14 -14 -14 -13
-13 -13 -13 -14 -13 -13 -13 -13 -13 -13 -13 -12 -12 -12 -12 -12 -12 -13 -13 -13 -13 -13 -14 -14 -14 -14 -14 -14 -13 -14 -13 -14 -14 -14 -14 -14 -13 -13 -13 -13 -13 -13 -14
-13 -13 -14 -14 -13 -13 -13 -13 -13 -13 -13 -13 -12 -12 -12 -12 -12 -13 -13 -13 -13 -13 -14 -14 -14 -14 -14 -14 -14 -14 -14 -14 -14 -14 -14 -14 -14 -14 -14 -13 -13 -14 -14
-14 -14 -14 -14 -13 -13 -13 -13 -13 -13 -13 -13 -13 -13 -13 -12 -12 -13 -13 -12 -13 -13 -14 -14 -15 -14 -14 -14 -14 -14 -14 -14 -14 -14 -14 -14 -14 -14 -14 -14 -14 -14 -14
-15 -14 -14 -14 -13 -13 -13 -13 -13 -13 -13 -13 -14 -13 -14 -12 -12 -12 -12 -12 -13 -13 -14 -14 -15 -15 -14 -14 -14 -14 -14 -14 -14 -14 -14 -14 -14 -14 -13 -14 -14 -14 -14
-15 -15 -14 -14 -14 -14 -14 -14 -14 -13 -13 -13 -13 -14 -13 -13 -12 -12 -12 -13 -13 -13 -13 -14 -15 -15 -14 -14 -14 -14 -14 -14 -14 -14 -14 -14 -14 -13 -13 -13 -14 -14 -14
-15 -15 -15 -15 -14 -14 -14 -14 -14 -13 -13 -14 -14 -13 -13 -13 -13 -12 -12 -13 -13 -13 -13 -14 -15 -15 -15 -15 -14 -14 -14 -14 -14 -14 -14 -14 -14 -14 -14 -14 -14 -14 -14
-15 -15 -15 -15 -14 -14 -13 -13 -13 -13 -13 -13 -13 -13 -13 -13 -13 -13 -12 -12 -12 -13 -13 -14 -14 -14 -15 -15 -14 -14 -14 -14 -14 -14 -14 -14 -14 -14 -14 -14 -14 -14 -14
-16 -15 -15 -14 -14 -14 -14 -14 -13 -14 -14 -13 -13 -13 -13 -13 -13 -13 -13 -13 -13 -13 -13 -13 -13 -14 -14 -14 -14 -14 -14 -14 -14 -14 -14 -14 -14 -14 -14 -14 -14 -14 -15
-16 -16 -15 -14 -14 -14 -14 -14 -14 -14 -14 -14 -13 -13 -13 -12 -12 -12 -13 -13 -13 -13 -13 -14 -13 -13 -14 -14 -14 -14 -14 -14 -14 -14 -14 -14 -14 -14 -14 -14 -14 -15 -14
-16 -16 -15 -14 -14 -14 -14 -15 -15 -15 -14 -14 -13 -13 -13 -13 -13 -13 -13 -13 -13 -13 -13 -14 -14 -14 -14 -14 -14 -14 -14 -14 -14 -14 -14 -14 -14 -14 -14 -14 -14 -15 -15
-16 -16 -15 -14 -14 -14 -15 -15 -15 -15 -15 -14 -14 -13 -13 -13 -13 -13 -13 -13 -13 -13 -13 -13 -13 -13 -13 -13 -13 -13 -14 -14 -14 -14 -14 -14 -14 -14 -14 -14 -15 -15 -15
-16 -15 -15 -14 -14 -15 -15 -15 -15 -15 -14 -14 -14 -13 -13 -13 -13 -13 -13 -13 -13 -13 -13 -13 -13 -13 -13 -13 -13 -14 -14 -14 -14 -14 -14 -14 -14 -14 -15 -15 -15 -15 -15
-16 -15 -15 -15 -15 -15 -15 -15 -16 -14 -14 -14 -14 -14 -13 -13 -13 -13 -13 -13 -13 -13 -13 -13 -13 -14 -13 -14 -14 -14 -14 -14 -14 -15 -14 -14 -14 -14 -15 -15 -15 -15 -15
-16 -15 -15 -15 -15 -15 -15 -15 -16 -14 -14 -14 -13 -13 -13 -13 -13 -13 -13 -13 -13 -13 -13 -13 -14 -14 -14 -14 -14 -14 -14 -15 -15 -14 -14 -14 -15 -15 -15 -15 -15 -15 -15
-16 -15 -15 -15 -15 -15 -15 -15 -15 -13 -13 -14 -14 -13 -13 -13 -13 -13 -13 -13 -14 -14 -14 -14 -14 -14 -14 -14 -14 -14 -15 -15 -14 -14 -14 -15 -15 -15 -15 -15 -15 -15 -15
-16 -15 -15 -15 -15 -15 -15 -14 -15 -14 -14 -13 -13 -13 -13 -13 -13 -13 -14 -14 -14 -14 -14 -14 -14 -14 -14 -14 -14 -15 -15 -14 -15 -15 -15 -15 -15 -15 -15 -15 -15 -15 -15
-16 -15 -15 -15 -15 -15 -15 -14 -15 -14 -14 -13 -13 -13 -13 -14 -14 -14 -14 -14 -14 -14 -14 -14 -14 -14 -14 -14 -14 -14 -14 -15 -15 -15 -15 -15 -15 -15 -15 -15 -15 -16 -16
-15 -15 -15 -15 -15 -15 -15 -15 -14 -15 -14 -14 -14 -14 -14 -14 -14 -14 -14 -14 -14 -14 -14 -14 -14 -14 -14 -15 -15 -15 -15 -15 -15 -15 -15 -15 -15 -15 -16 -16 -16 -16 -16
-15 -15 -14 -15 -15 -14 -14 -15 -14 -14 -14 -14 -14 -14 -14 -14 -14 -14 -14 -14 -15 -15 -14 -14 -14 -14 -15 -15 -15 -15 -15 -15 -15 -15 -15 -15 -15 -16 -16 -16 -16 -16 -16
-15 -15 -15 -15 -15 -15 -14 -14 -14 -14 -14 -14 -15 -14 -14 -14 -14 -14 -14 -15 -15 -15 -15 -15 -15 -15 -15 -15 -15 -15 -15 -15 -16 -16 -16 -16 -16 -16 -16 -16 -16 -16 -16
-16 -16 -16 -15 -15 -15 -15 -15 -14 -15 -15 -15 -15 -15 -15 -15 -15 -15 -15 -15 -15 -15 -15 -15 -15 -15 -16 -16 -15 -16 -16 -16 -17 -16 -16 -16 -16 -16 -16 -16 -16 -16 -16
-16 -16 -16 -16 -16 -16 -15 -15 -15 -15 -15 -15 -15 -15 -15 -15 -15 -15 -15 -15 -16 -15 -15 -16 -16 -16 -16 -16 -16 -16 -16 -17 -16 -16 -16 -16 -16 -16 -16 -16 -16 -16 -16
-16 -16 -16 -16 -16 -16 -16 -15 -15 -15 -15 -16 -15 -15 -16 -15 -15 -16 -16 -15 -15 -15 -15 -16 -15 -16 -16 -16 -16 -16 -16 -16 -16 -17 -17 -16 -16 -16 -16 -17 -16 -17 -17
Height
5762 5763 5762 5760 5759 5757 5756 5756 5757 5759 5759 5758 5755 5761 5763 5769 5775 5779 5781 5784 5787 5791 5794 5796 5800 5803 5805 5807 5808 5810 5811 5812 5812 5812 5813 5814 5812 5813 5814 5815 5815 5814 5815
5755 5756 5755 5754 5752 5752 5751 5752 5752 5753 5753 5752 5752 5756 5760 5764 5770 5775 5777 5780 5782 5786 5790 5794 5796 5798 5801 5803 5805 5806 5807 5808 5808 5809 5809 5810 5810 5811 5811 5811 5811 5811 5812
5748 5749 5748 5748 5747 5746 5746 5746 5748 5749 5749 5749 5749 5752 5756 5760 5766 5770 5773 5775 5777 5782 5785 5789 5791 5793 5796 5798 5800 5801 5803 5804 5805 5806 5806 5806 5807 5808 5808 5807 5807 5808 5808
5741 5742 5741 5742 5741 5740 5740 5741 5743 5745 5746 5747 5747 5748 5752 5756 5761 5766 5768 5770 5774 5777 5781 5784 5786 5788 5792 5794 5795 5797 5798 5799 5800 5800 5802 5802 5803 5804 5804 5805 5804 5804 5804
5734 5736 5735 5735 5735 5734 5734 5736 5738 5740 5741 5743 5744 5746 5750 5753 5756 5760 5764 5765 5768 5772 5776 5779 5781 5783 5786 5789 5791 5792 5793 5794 5794 5795 5796 5798 5798 5799 5800 5800 5801 5801 5801
5728 5729 5729 5728 5728 5727 5728 5730 5732 5734 5735 5738 5739 5741 5745 5748 5750 5755 5757 5760 5762 5766 5770 5773 5775 5777 5780 5783 5785 5786 5788 5788 5789 5790 5791 5793 5794 5795 5795 5795 5795 5795 5795
5721 5723 5722 5721 5721 5721 5722 5724 5727 5728 5730 5732 5732 5735 5738 5742 5744 5748 5752 5754 5757 5760 5764 5767 5769 5771 5775 5778 5780 5781 5782 5783 5783 5784 5785 5788 5789 5789 5789 5789 5789 5788 5788
5714 5715 5716 5715 5714 5715 5717 5719 5720 5722 5723 5726 5728 5729 5731 5735 5737 5741 5746 5749 5753 5756 5758 5760 5763 5766 5769 5771 5773 5775 5776 5777 5777 5779 5779 5780 5782 5782 5783 5783 5783 5782 5781
5707 5708 5709 5709 5709 5710 5712 5713 5714 5716 5718 5719 5721 5722 5724 5727 5731 5735 5740 5744 5748 5750 5752 5754 5757 5760 5762 5764 5767 5768 5768 5770 5771 5772 5774 5774 5776 5776 5776 5776 5775 5775 5774
5700 5702 5702 5703 5704 5705 5705 5705 5707 5709 5711 5714 5714 5717 5718 5721 5724 5728 5732 5737 5741 5745 5746 5748 5751 5754 5756 5758 5760 5761 5762 5764 5765 5766 5768 5769 5769 5770 5769 5769 5768 5767 5766
5694 5695 5696 5697 5697 5698 5699 5700 5701 5702 5705 5707 5707 5709 5712 5716 5717 5719 5726 5730 5735 5738 5740 5742 5744 5748 5751 5753 5754 5755 5756 5757 5758 5760 5760 5762 5762 5762 5762 5761 5761 5760 5760
5688 5689 5690 5691 5692 5693 5693 5693 5694 5695 5696 5700 5700 5703 5705 5708 5708 5712 5719 5723 5727 5729 5732 5734 5739 5742 5744 5746 5747 5747 5749 5750 5752 5753 5755 5755 5756 5755 5755 5754 5753 5753 5753
5682 5682 5684 5685 5686 5687 5686 5687 5687 5687 5687 5690 5693 5696 5698 5700 5703 5707 5714 5717 5719 5723 5726 5729 5732 5735 5737 5739 5740 5741 5742 5744 5746 5747 5748 5749 5748 5748 5748 5747 5746 5746 5746
5675 5677 5678 5680 5681 5681 5681 5681 5679 5678 5679 5680 5684 5688 5692 5696 5699 5704 5708 5711 5714 5718 5721 5723 5726 5728 5730 5731 5733 5735 5737 5738 5739 5740 5741 5741 5741 5741 5740 5740 5739 5738 5738
5669 5672 5673 5673 5675 5675 5674 5672 5671 5670 5670 5673 5677 5682 5686 5691 5694 5697 5701 5705 5708 5711 5714 5716 5718 5720 5722 5725 5727 5729 5730 5731 5732 5732 5733 5733 5733 5733 5733 5732 5731 5732 5731
5664 5666 5667 5668 5669 5669 5667 5665 5663 5662 5663 5667 5670 5675 5679 5685 5688 5692 5695 5698 5702 5704 5706 5709 5711 5712 5714 5718 5720 5721 5723 5724 5724 5724 5724 5724 5725 5725 5725 5725 5725 5725 5723
5659 5661 5661 5663 5663 5662 5661 5660 5656 5655 5657 5662 5665 5669 5675 5678 5682 5686 5689 5692 5695 5698 5701 5701 5704 5706 5709 5712 5714 5715 5717 5717 5716 5715 5716 5716 5716 5717 5717 5717 5717 5716 5715
5652 5655 5656 5657 5656 5656 5655 5654 5649 5650 5651 5656 5660 5665 5669 5673 5677 5681 5684 5686 5689 5693 5694 5697 5700 5702 5704 5706 5707 5709 5709 5709 5707 5710 5710 5709 5709 5708 5708 5708 5708 5707 5707
5646 5648 5649 5650 5651 5651 5650 5648 5645 5645 5647 5652 5655 5659 5663 5668 5672 5675 5678 5681 5684 5687 5689 5691 5694 5696 5697 5698 5700 5701 5701 5699 5700 5701 5701 5701 5701 5700 5700 5700 5700 5699 5698
5639 5640 5643 5644 5644 5644 5644 5644 5644 5641 5643 5645 5650 5653 5658 5662 5666 5669 5672 5675 5678 5680 5682 5684 5686 5687 5689 5690 5691 5692 5692 5692 5692 5692 5692 5692 5692 5691 5691 5691 5690 5689 5688
5633 5633 5636 5637 5638 5639 5640 5640 5640 5640 5641 5643 5645 5648 5652 5657 5660 5663 5666 5669 5671 5673 5674 5676 5678 5679 5680 5681 5682 5683 5683 5683 5683 5684 5684 5683 5683 5682 5681 5681 5679 5678 5676
5627 5627 5630 5631 5633 5634 5635 5636 5637 5638 5638 5640 5642 5644 5647 5650 5654 5657 5660 5662 5664 5665 5666 5668 5670 5671 5672 5673 5673 5674 5674 5674 5674 5674 5673 5672 5672 5671 5670 5668 5667 5665 5664
5620 5622 5624 5626 5627 5629 5630 5631 5633 5634 5636 5637 5639 5641 5644 5646 5649 5651 5653 5655 5656 5657 5659 5660 5662 5662 5663 5664 5665 5664 5664 5664 5664 5663 5662 5661 5660 5659 5657 5656 5655 5654 5652
5612 5615 5618 5620 5622 5623 5624 5626 5627 5629 5631 5633 5634 5636 5638 5640 5642 5644 5646 5647 5648 5649 5651 5652 5652 5653 5654 5654 5654 5654 5653 5652 5652 5650 5650 5648 5647 5646 5644 5643 5641 5639 5636
5604 5607 5609 5612 5614 5616 5618 5618 5620 5622 5623 5626 5627 5629 5631 5632 5634 5636 5637 5638 5639 5639 5640 5641 5641 5642 5642 5643 5643 5642 5641 5640 5639 5638 5637 5636 5634 5632 5631 5628 5626 5623 5620
5596 5598 5601 5602 5605 5607 5609 5610 5612 5613 5615 5616 5617 5619 5621 5623 5624 5625 5626 5627 5628 5629 5630 5630 5630 5630 5630 5630 5630 5629 5628 5628 5626 5625 5623 5621 5619 5617 5615 5611 5609 5605 5601
Wind_Speed
39 36 35 29 24 26 29 26 26 25 23 22 29 32 29 23 24 25 26 26 25 23 21 21 21 21 20 21 21 20 20 19 19 19 18 21 26 13 13 16 20 17 10
39 36 33 26 25 26 28 26 25 24 23 19 26 31 32 26 26 27 27 28 26 25 23 23 23 22 23 21 20 22 21 18 18 16 18 13 9 14 15 14 13 12 16
39 35 31 25 27 27 28 27 25 24 21 22 15 32 30 27 25 28 28 32 26 26 27 25 25 24 24 23 23 23 23 22 18 21 17 16 16 17 18 18 18 18 19
37 33 29 25 27 27 28 28 26 24 23 22 20 22 30 30 25 27 29 35 29 27 27 27 25 25 24 25 24 23 23 23 26 24 23 21 19 19 20 20 21 22 22
35 31 29 27 28 29 29 31 29 27 26 26 24 30 27 26 30 29 30 35 29 29 29 28 27 27 26 27 26 24 24 24 24 22 23 24 23 22 22 22 23 23 25
31 29 28 28 29 31 30 31 29 27 28 29 27 29 32 34 29 31 31 35 31 28 28 29 28 26 25 26 26 26 26 25 25 23 23 24 22 23 22 24 25 26 28
31 28 27 30 28 30 30 31 30 28 29 31 28 28 28 30 36 35 36 33 29 28 27 30 31 31 28 27 28 29 28 28 26 24 25 27 26 24 24 25 26 28 31
31 26 29 28 28 27 28 29 29 28 29 31 31 29 29 28 35 37 36 34 33 30 27 31 34 34 33 33 32 30 29 29 25 26 27 29 29 27 26 27 29 33 33
29 27 29 27 28 27 27 27 28 28 31 34 32 31 30 31 29 36 37 38 37 33 28 31 35 37 35 35 32 31 31 30 28 27 28 28 30 28 29 30 33 34 34
29 29 27 27 26 25 23 24 28 28 33 34 32 33 31 35 39 40 40 40 40 35 32 32 35 36 36 36 34 34 35 32 32 30 29 30 31 32 32 32 34 35 35
30 28 26 25 23 23 22 22 22 29 34 35 34 34 31 34 36 41 42 38 38 32 33 34 37 37 37 37 36 36 37 37 33 32 29 29 30 30 31 32 33 30 28
31 26 25 24 22 23 22 21 23 29 34 34 35 35 30 29 32 34 31 36 35 36 38 44 36 37 39 37 35 36 36 37 33 29 30 32 31 31 31 31 29 27 28
29 25 23 22 21 21 19 22 23 25 31 35 35 35 24 25 31 34 37 36 33 35 36 42 39 40 37 35 36 35 31 29 29 29 30 31 31 32 32 30 29 29 30
26 24 22 21 20 17 22 24 25 27 28 32 33 34 35 29 30 35 33 32 29 35 39 38 35 36 39 38 32 29 30 29 29 30 32 33 32 32 31 30 31 32 33
25 25 22 23 23 22 21 23 26 26 28 32 32 35 31 31 27 29 34 30 28 32 31 36 35 39 39 35 33 28 31 32 31 30 31 33 34 33 33 32 33 33 32
27 26 21 23 26 24 22 21 25 22 25 32 32 35 32 30 29 31 32 31 33 32 33 32 34 37 35 33 30 29 30 30 32 34 36 36 35 36 35 33 32 32 32
29 27 22 24 24 22 21 20 26 20 29 32 32 30 30 32 30 30 33 35 32 28 29 28 27 29 29 30 30 30 32 32 33 36 37 37 35 32 32 31 30 31 32
30 26 26 25 23 22 18 18 21 18 24 30 29 28 32 31 32 32 30 30 27 27 26 22 26 29 31 33 30 29 31 34 39 35 34 34 32 31 32 31 32 31 31
29 28 28 26 22 21 15 15 16 14 25 30 29 33 37 35 31 30 31 32 28 26 24 26 28 31 32 32 33 33 34 38 36 34 33 33 33 34 34 32 32 33 36
31 26 28 25 20 19 14 10 14 10 24 27 30 30 33 33 30 28 28 29 29 29 32 32 33 34 35 34 35 35 36 35 33 34 34 35 34 34 35 36 37 40 43
30 24 27 23 21 17 15 11 11 13 11 25 26 28 30 36 34 28 30 30 29 32 36 37 34 34 35 36 37 37 34 34 36 36 35 37 36 38 40 42 44 46 45
29 23 24 21 21 19 17 14 12 12 11 12 16 23 24 28 32 32 35 34 27 26 33 38 37 38 37 38 37 35 37 38 39 40 40 40 41 43 45 47 47 49 50
31 26 24 23 22 22 21 19 16 15 16 15 17 22 20 23 24 29 34 35 34 35 35 37 36 35 36 38 39 40 40 41 42 44 45 45 47 48 48 50 52 53 55
32 30 29 28 27 25 25 25 23 20 20 21 22 23 25 27 27 30 33 35 36 36 35 38 38 39 40 42 42 43 45 45 47 47 49 50 50 52 54 55 56 58 60
37 34 33 32 32 31 31 30 28 25 25 25 26 27 28 30 32 34 35 37 38 39 40 41 43 45 45 45 47 47 48 49 50 51 53 54 55 57 59 61 63 66 67
36 37 36 36 37 38 38 37 35 32 31 32 31 30 31 35 37 38 40 41 42 43 46 48 49 49 51 50 52 52 53 54 54 56 57 59 62 63 65 67 70 71 70
Wind_Direction
278 286 287 285 277 276 273 268 262 265 258 256 243 210 200 199 209 222 221 227 229 232 228 229 236 239 240 240 244 248 263 265 269 262 261 263 253 238 272 255 256 246 250
278 286 287 281 277 274 271 259 258 264 260 255 228 206 197 205 210 225 225 228 229 235 235 236 237 242 246 246 245 254 260 265 269 264 263 263 254 244 247 254 257 250 248
278 284 284 275 272 271 269 254 253 259 266 248 256 212 201 211 214 213 222 230 224 229 233 235 234 236 236 244 246 252 260 265 265 263 261 250 244 241 245 246 247 249 255
277 283 280 270 269 268 264 253 251 255 259 248 233 221 213 222 226 215 218 230 231 227 231 234 233 233 241 246 248 254 263 270 275 263 256 247 243 248 253 255 257 257 259
275 279 277 268 266 263 260 249 248 250 251 249 244 221 215 226 228 226 223 236 237 233 233 232 231 234 240 246 250 257 264 267 273 262 255 249 246 251 257 261 267 270 271
271 274 270 266 264 262 255 245 243 247 251 244 238 225 227 226 230 227 235 238 237 238 235 232 232 230 237 243 247 257 261 267 265 256 253 250 252 258 264 265 270 275 275
268 269 266 264 262 257 247 241 238 244 247 236 236 234 235 226 231 226 233 235 237 237 235 234 229 230 236 245 253 254 258 267 261 251 253 253 256 257 262 266 272 274 274
263 264 263 260 255 249 244 242 243 242 241 238 240 236 239 230 235 225 229 234 238 239 238 233 231 230 233 240 243 251 260 263 256 256 255 247 254 257 262 267 271 274 280
259 259 262 253 249 251 249 249 249 245 242 238 239 243 241 233 240 225 232 235 237 238 241 236 233 231 235 239 244 250 256 257 254 260 257 251 254 258 265 269 273 277 281
258 261 260 251 251 250 253 252 250 250 243 241 243 241 243 231 240 235 234 231 234 236 243 241 233 232 234 240 245 251 257 261 264 261 261 256 258 261 267 273 276 279 281
257 263 255 252 250 248 249 251 256 249 241 240 245 240 244 232 246 233 240 226 230 233 246 245 234 234 238 244 250 256 260 261 264 261 256 259 259 264 272 276 279 277 280
258 257 252 252 248 246 251 262 266 252 245 243 243 237 243 240 241 218 229 228 225 234 242 230 239 239 243 248 255 258 258 260 259 256 259 262 265 269 272 274 273 275 276
257 252 251 250 244 249 264 263 272 273 254 245 240 233 233 248 234 237 228 237 227 236 241 233 234 241 248 253 255 257 256 256 260 261 264 267 267 269 269 273 271 274 278
251 249 248 240 242 254 263 265 265 274 258 243 234 227 217 235 235 234 239 236 235 240 242 245 247 250 249 251 252 252 257 258 260 263 265 266 266 266 270 273 269 271 275
246 245 244 239 246 258 272 282 275 265 252 238 232 224 221 233 233 241 231 242 243 240 240 244 252 252 247 246 252 252 257 259 261 262 263 263 267 267 273 270 269 276 283
243 240 243 246 253 260 270 281 287 260 245 228 227 223 227 233 236 236 238 242 244 245 247 252 253 254 242 242 248 253 259 263 263 263 263 264 266 270 274 272 273 275 275
240 238 242 247 249 257 269 283 287 246 224 217 224 216 228 242 231 238 241 240 243 242 246 253 244 242 237 242 248 252 258 261 263 262 264 265 268 269 271 270 270 272 275
239 239 241 248 252 260 270 281 279 241 230 213 218 223 224 226 230 235 237 240 241 246 241 229 235 238 243 249 248 255 261 263 262 267 268 270 269 267 267 269 271 274 277
242 238 241 246 253 257 264 284 288 256 227 222 222 222 226 219 228 233 239 240 245 243 230 234 240 247 251 254 252 259 261 265 265 263 264 265 266 271 275 276 278 279 280
243 238 246 247 249 256 253 265 282 275 234 220 219 217 220 228 229 238 237 241 245 238 240 243 248 253 253 257 261 263 267 266 261 262 265 267 269 273 275 276 278 278 280
241 237 246 244 243 246 250 243 251 277 242 226 226 230 222 229 230 235 238 243 250 251 244 248 254 252 254 259 264 265 263 265 266 265 266 266 267 270 270 273 274 274 278
241 237 240 241 244 241 242 241 242 239 250 234 235 219 218 222 227 231 235 237 241 247 249 252 251 255 254 257 260 259 262 264 265 266 269 271 271 272 272 273 275 277 278
239 244 247 243 240 245 246 245 240 241 239 235 235 237 244 229 238 236 235 232 243 244 254 255 256 257 256 258 260 263 264 266 267 269 270 271 273 273 276 277 278 280 282
235 242 250 250 250 247 248 249 247 248 247 241 240 244 248 247 245 244 246 247 253 256 256 256 256 256 257 257 259 262 263 266 266 271 273 274 275 276 275 276 277 279 282
236 239 247 254 254 257 255 251 250 249 247 249 252 255 254 251 253 252 252 251 253 256 257 258 258 260 261 262 262 264 266 268 269 271 272 274 274 275 277 278 279 281 283
246 245 245 247 255 256 257 257 255 253 254 257 259 257 262 263 256 253 254 255 256 258 261 263 265 265 263 265 267 266 267 268 269 271 272 273 275 275 276 277 281 280 281